Regional Weather Roundup
Issued by NWS

Home | Current Version | Previous Version | Graphics & Text | Print | Product List | Glossary On
Versions: 1 2 3 4 5 6 7 8 9 10 11 12 13 14 15 16 17 18 19 20 21 22 23 24 25 26 27 28 29 30 31 32 33 34 35 36 37 38 39 40 41 42 43 44 45 46 47 48 49 50
000
ASUS45 KTFX 271219
RWRMT
MONTANA HOURLY WEATHER ROUNDUP
NATIONAL WEATHER SERVICE GREAT FALLS MT
519 AM MST FRI FEB 27 2015

NOTE: "FAIR" INDICATES FEW OR NO CLOUDS BELOW 12000 FEET WITH NO
SIGNIFICANT WEATHER AND/OR OBSTRUCTIONS TO VISIBILITY.

* THESE STATIONS ARE NOT UNDER NWS QUALITY CONTROL. THEY DO NOT
   REPORT WEATHER SUCH AS PRECIPITATION OR FOG.

MTZ001>007-043-271300-
WEST OF THE DIVIDE
CITY           SKY/WX    TMP DP  RH WIND       PRES   REMARKS
KALISPELL      CLOUDY    25  18  75 NW3       29.90S
MISSOULA       CLOUDY    25  12  58 SE15      29.90F WCI  13
BUTTE          MOCLDY     7   1  76 SE6       29.83F WCI  -4
MULLAN PASS    LGT SNOW  18  16  92 S7        29.74F WCI   9
* ANACONDA     PTCLDY    12   7  80 S3         N/A
* ESSEX        N/A       15  10  80 N/A        N/A
* EUREKA APT   PTCLDY    28  19  69 CALM      29.93S
* HAMILTON APT CLOUDY    25  18  75 CALM      29.86F
* LIBBY APT    MOCLDY    28  25  89 CALM      29.91S
* LINCOLN      N/A        1  -4  79 N/A        N/A
* LOOKOUT PASS N/A       25  19  78 S8         N/A   WCI  16
* POLSON       N/A       24  18  78 N/A        N/A
* RONAN APT    MOCLDY    27  21  78 N/A        N/A
* SEELEY LAKE  N/A       11   7  84 N/A        N/A
* THOMP F APT  MOCLDY    19   8  62 N/A        N/A
* YAAK HILL    N/A       31  23  72 N/A        N/A
$$

MTZ008-052>055-271300-
SOUTHWEST MONTANA
CITY           SKY/WX    TMP DP  RH WIND       PRES   REMARKS
BOZEMAN        PTCLDY     7   1  76 SW5       29.94S WCI  -2
DILLON         CLOUDY    12   7  80 CALM      29.85F
* W YELLOWSTON PTCLDY     1  -5  75 N/A        N/A
* THREE FORKS  PTCLDY     9   3  76 N/A        N/A
* BOULDER HILL N/A        6   1  80 SW9        N/A   WCI  -8
* MONIDA PASS  N/A       11   8  88 NW3        N/A
* RAYNOLDS PAS N/A        5  -8  54 S1         N/A
* WHITEHALL    N/A        6   1  80 SW1        N/A
* WISE RIVER   N/A        9   3  76 SE5        N/A
$$

MTZ009>010-012-014-046-048-049-054-271300-
EAST SLOPES AND CENTRAL MONTANA
CITY           SKY/WX    TMP DP  RH WIND       PRES   REMARKS
CUT BANK       CLOUDY     5   1  83 NW7       29.94R WCI  -7
GREAT FALLS    PTCLDY    10   3  73 S6        29.91F
MALMSTROM AFB  MOCLDY     3   1  91 N3        29.94F
* CONRAD       MOCLDY     1  -2  87 CALM       N/A
* DEARBORN     N/A       11   8  88 SE5        N/A   WCI   2
* EAST GLACIER N/A       13  10  88 NW4        N/A
* MONARCH      N/A        2  -4  76 S6G11      N/A   WCI  -9
* PENDROY      N/A        8   6  91 NW1        N/A
* ROGERS PASS  N/A        9   3  76 NW4G9      N/A
* SWEET GRASS  N/A        2  -1  87 SW11       N/A   WCI -14
* WHITE SULPH  N/A       -2  -7  79 NE2        N/A
$$

MTZ011-013-016-021-035-040-045-047-050-051-271300-
NORTH CENTRAL MONTANA
CITY           SKY/WX    TMP DP  RH WIND       PRES   REMARKS
HAVRE          PTCLDY     0  -4  83 CALM      30.05S
LEWISTOWN      PTCLDY    -6 -11  78 SE3       29.89F
* N BAR RANCH  CLEAR      1  -6  72 NW7       29.89F WCI -12
* CHINOOK      PTCLDY    -2  -6  83 E7        30.07S WCI -15
* FORT BENTON  MOCLDY     3  -2  79 CALM      30.01F
* CHESTER      N/A        5  -1  76 N/A        N/A
* DENTON       N/A        4  -4  69 SE8        N/A   WCI  -9
* GEYSER       N/A        2  -2  83 SW3        N/A
* JUDITH GAP   N/A       -6  -8  91 S8         N/A   WCI -21
* LOMA         N/A        5   0  80 E6         N/A   WCI  -6
$$

MTZ017>020-022>027-061-062-271300-
NORTHEAST MONTANA
CITY           SKY/WX    TMP DP  RH WIND       PRES   REMARKS
GLASGOW        CLEAR      0  -8  68 SE12      30.17F WCI -17
GLENDIVE       CLEAR      0  -6  75 SE3       30.21F
JORDAN         CLEAR      0  -8  68 E3        30.12F
SIDNEY         CLEAR     -8 -26  40 CALM      30.30F
WOLF POINT     CLEAR     -4  -9  79 NE5       30.24F WCI -15
* BEAVER HILL  N/A       -1  -8  72 SE13       N/A   WCI -19
* CIRCLE       N/A        0  -6  75 N/A        N/A
* LINDSAY DVD  N/A       -5 -10  79 E9         N/A   WCI -21
* NAVAJO       N/A       -4  -9  79 S10        N/A   WCI -21
* PLENTYWOOD A CLEAR     -6 -11  78 SE7       30.23F WCI -20
* POPLAR APT   CLEAR      3  -6  66 SE6       30.26F WCI  -8
* SACO         N/A       -2  -7  79 NE10       N/A   WCI -18
$$

MTZ028>042-056>058-271300-
SOUTHCENTRAL AND SOUTHEAST MONTANA
CITY           SKY/WX    TMP DP  RH WIND       PRES   REMARKS
BAKER          CLEAR     -8 -11  86 SE9       30.19F WCI -25
BILLINGS       CLEAR      0  -4  83 SW6       30.01F WCI -12
LIVINGSTON     PTCLDY     3   0  87 NW6       29.92F WCI  -8
MILES CITY     PTCLDY     0  -6  75 SE9       30.16F WCI -15
* BIG TIMBER A PTCLDY     3   0  87 S3        29.94F
* FORSYTH APT  PTCLDY     0  -6  75 E3        30.13F
* LAUREL APT   CLEAR     -2 -11  65 N/A        N/A
* ROUNDUP APT  CLEAR      0  -9  65 S6         N/A   WCI -12
* ALZADA       N/A      -10 -15  78 E5         N/A   WCI -22
* HYSHAM       N/A        3  -6  66 SW3        N/A
* LAME DEER    N/A        0  -4  83 S11G18     N/A   WCI -17
* REED POINT   N/A       -5  -8  87 N/A        N/A
* ROSCOE HILL  N/A       -2  -7  79 SW2        N/A
$$

REGIONAL REPORTS...DAKOTAS
CITY           SKY/WX    TMP DP  RH WIND       PRES   REMARKS
WILLISTON      PTCLDY   -15 -18  86 CALM      30.30F
DICKINSON      PTCLDY    -8 -15  71 S9        30.25F WCI -25
BEACH          CLEAR     -2  -8  75 S9        30.22F WCI -18
CROSBY         CLEAR     -9 -15  74 S9        30.29F WCI -26
TIOGA          CLEAR    -20 -24  81 E3        30.31F
WATFORD CITY   CLEAR    -15 -20  77 CALM      30.28F
BISMARCK       PTCLDY   -13 -17  82 SE3       30.42F
GRAND FORKS    PTCLDY   -11 -17  74 SW3       30.45R
FARGO          PTCLDY   -11 -17  74 S8        30.49S WCI -28
BUFFALO SD     PTCLDY    -6 -11  78 SE6       30.14F WCI -19
RAPID CITY     CLEAR     -2  -9  72 S9        30.24F WCI -18
$$

REGIONAL REPORTS...WYOMING/IDAHO/WASHINGTON
CITY           SKY/WX    TMP DP  RH WIND       PRES   REMARKS
GILLETTE       CLEAR      3  -2  79 S20       30.02F WCI -18
SHERIDAN       PTCLDY    -9 -17  67 CALM      30.01F
CODY           PTCLDY    -2  -6  83 S3        29.91F
YELLOWSTONE LA PTCLDY    -8 -13  78 CALM      29.79F
SALMON         CLOUDY    28  21  75 CALM      29.83S
MULLAN PASS    LGT SNOW  18  16  92 S7        29.74S WCI   9
SAND POINT     CLOUDY    30  30 100 CALM      29.87F
SPOKANE        PTCLDY    28  27  96 NE7       29.82F WCI  21
$$

REGIONAL REPORTS...ALBERTA
CITY           SKY/WX    TMP DP  RH WIND       PRES   REMARKS
CALGARY        MOCLDY    16   9  74 N15       30.03R WCI   1
LETHBRIDGE     CLOUDY    12   9  88 NW12      30.02R WCI  -2
MEDICINE HAT   CLEAR      1  -2  87 CALM      30.07F
EDMONTON       LGT SNOW  10   7  88 NW7       30.13S WCI  -1
WATERTON GATE  N/A       12   9  88 E6         N/A   WCI   2
CARDSTON       N/A       12   9  88 NW9        N/A
MILK RIVER     N/A        3   0  87 SW5        N/A   WCI  -7
$$

REGIONAL REPORTS...SASKATCHEWAN
CITY           SKY/WX    TMP DP  RH WIND       PRES   REMARKS
SWIFT CURRENT  CLEAR      0  -6  75 S18       30.05S WCI -21
MOOSE JAW      N/A       -2 -11  65 S17       30.20F WCI -23
REGINA         FAIR     -17 -22  77 E10       30.23F WCI -37
VAL MARIE      N/A        1  -4  79 S6         N/A   WCI -11
ASSINIBOIA     N/A       -9 -15  74 SE9        N/A   WCI -26
CORONACH       N/A       -4  -8  83 S7         N/A   WCI -18

$$




USA.gov is the U.S. government's official web portal to all federal, state and local government web resources and services.